SKW5519 KCRQ-KSFO

Flight info

Callsign SKW5519
Flight time N/A
Altitude 32000
Route PADRZ2 IKAYE RIZIN SPLNT STOKD SERFR SERFR4
Aircraft E75L/M-SDE3GILORVW/S

Departure

Time 2026-05-09 21:39
Airport McClellan-Palomar Airport (KCRQ)

Arrival

Time N/A
Airport San Francisco International Airport (KSFO)
Time Latitude Longitude Altitude Speed Heading
2026-05-09 20:56 33.12666 -117.27676 336 ft 0 kts 48°
2026-05-09 21:26 33.12666 -117.27677 336 ft 1 kts 48°
2026-05-09 21:26 33.12657 -117.27688 334 ft 3 kts 44°
2026-05-09 21:27 33.12642 -117.27705 332 ft 3 kts 37°
2026-05-09 21:27 33.12626 -117.27719 332 ft 3 kts 34°
2026-05-09 21:27 33.12622 -117.27721 331 ft 1 kts 37°
2026-05-09 21:35 33.12626 -117.27719 331 ft 2 kts 31°
2026-05-09 21:36 33.12645 -117.27719 332 ft 4 kts 341°
2026-05-09 21:36 33.12690 -117.27735 335 ft 9 kts 348°
2026-05-09 21:36 33.12756 -117.27750 333 ft 6 kts 349°
2026-05-09 21:36 33.12786 -117.27737 335 ft 6 kts 65°
2026-05-09 21:37 33.12797 -117.27675 331 ft 10 kts 79°
2026-05-09 21:37 33.12813 -117.27576 331 ft 14 kts 79°
2026-05-09 21:37 33.12833 -117.27450 334 ft 15 kts 79°
2026-05-09 21:37 33.12851 -117.27338 334 ft 11 kts 79°
2026-05-09 21:38 33.12879 -117.27274 333 ft 9 kts 47°
2026-05-09 21:38 33.12912 -117.27234 331 ft 4 kts 29°
2026-05-09 21:38 33.12942 -117.27238 333 ft 4 kts 323°
2026-05-09 21:38 33.12949 -117.27264 333 ft 4 kts 259°
2026-05-09 21:39 33.12944 -117.27291 334 ft 19 kts 259°
2026-05-09 21:39 33.12862 -117.27794 334 ft 103 kts 259°
2026-05-09 21:39 33.12686 -117.28833 671 ft 140 kts 258°
2026-05-09 21:39 33.12467 -117.30069 1294 ft 164 kts 256°
2026-05-09 21:40 33.12191 -117.31411 1851 ft 166 kts 254°
2026-05-09 21:40 33.11882 -117.32795 2070 ft 183 kts 252°
2026-05-09 21:40 33.11528 -117.34304 2636 ft 198 kts 252°
2026-05-09 21:40 33.11158 -117.35972 3268 ft 213 kts 255°
2026-05-09 21:41 33.10816 -117.37706 3929 ft 222 kts 256°
2026-05-09 21:41 33.10444 -117.39572 4532 ft 242 kts 256°
2026-05-09 21:41 33.09988 -117.41619 5073 ft 266 kts 253°
2026-05-09 21:41 33.09456 -117.43762 5949 ft 272 kts 258°
2026-05-09 21:42 33.09222 -117.46008 6867 ft 276 kts 265°
2026-05-09 21:42 33.09108 -117.48322 7668 ft 285 kts 267°
2026-05-09 21:42 33.08963 -117.50726 7809 ft 283 kts 263°
2026-05-09 21:42 33.08723 -117.52955 7877 ft 266 kts 262°
2026-05-09 21:43 33.08460 -117.55219 7947 ft 282 kts 262°
2026-05-09 21:43 33.08179 -117.57562 7989 ft 285 kts 262°
2026-05-09 21:43 33.07900 -117.59898 8003 ft 285 kts 262°
2026-05-09 21:43 33.07623 -117.62216 8835 ft 283 kts 262°
2026-05-09 21:44 33.07341 -117.64577 9740 ft 287 kts 262°
2026-05-09 21:44 33.07058 -117.66944 10361 ft 297 kts 262°
2026-05-09 21:44 33.06758 -117.69455 10810 ft 312 kts 262°
2026-05-09 21:44 33.06639 -117.72082 11385 ft 319 kts 275°
2026-05-09 21:45 33.07057 -117.74660 12099 ft 323 kts 289°
2026-05-09 21:45 33.08013 -117.77098 12861 ft 324 kts 303°
2026-05-09 21:45 33.09428 -117.79156 13773 ft 324 kts 316°
2026-05-09 21:45 33.11228 -117.80775 14248 ft 331 kts 330°
2026-05-09 21:46 33.13289 -117.82040 14718 ft 327 kts 334°
2026-05-09 21:46 33.14655 -117.82812 14821 ft 329 kts 335°
2026-05-09 21:46 33.17342 -117.84595 14937 ft 336 kts 325°
2026-05-09 21:46 33.19219 -117.86282 15207 ft 337 kts 322°
2026-05-09 21:47 33.20427 -117.87501 15801 ft 338 kts 317°
2026-05-09 21:47 33.22106 -117.89436 16532 ft 341 kts 316°
2026-05-09 21:47 33.23804 -117.91439 17299 ft 340 kts 315°
2026-05-09 21:47 33.25474 -117.93431 18079 ft 345 kts 315°
2026-05-09 21:48 33.27194 -117.95487 18562 ft 352 kts 315°
2026-05-09 21:48 33.28934 -117.97568 19166 ft 355 kts 316°
2026-05-09 21:48 33.30690 -117.99666 19786 ft 358 kts 316°
2026-05-09 21:48 33.32458 -118.01780 20482 ft 357 kts 316°
2026-05-09 21:49 33.34190 -118.03852 21384 ft 355 kts 316°
2026-05-09 21:49 33.35967 -118.05977 21693 ft 367 kts 316°
2026-05-09 21:49 33.37756 -118.08121 22288 ft 370 kts 316°
2026-05-09 21:49 33.39584 -118.10310 22885 ft 373 kts 316°
2026-05-09 21:50 33.41428 -118.12520 23478 ft 377 kts 316°
2026-05-09 21:50 33.43293 -118.14758 23985 ft 379 kts 316°
2026-05-09 21:50 33.47035 -118.19251 24985 ft 383 kts 316°
2026-05-09 21:51 33.48927 -118.21523 25486 ft 385 kts 316°
2026-05-09 21:51 33.50823 -118.23804 25978 ft 387 kts 316°
2026-05-09 21:51 33.52730 -118.26099 26463 ft 389 kts 316°
2026-05-09 21:51 33.54646 -118.28405 26933 ft 391 kts 316°
2026-05-09 21:52 33.56572 -118.30727 27407 ft 393 kts 316°
2026-05-09 21:52 33.58503 -118.33055 27853 ft 395 kts 316°
2026-05-09 21:52 33.60451 -118.35405 28280 ft 397 kts 316°
2026-05-09 21:52 33.62383 -118.37737 28722 ft 399 kts 316°
2026-05-09 21:53 33.64348 -118.40112 29144 ft 401 kts 316°
2026-05-09 21:53 33.66313 -118.42488 29667 ft 400 kts 316°
2026-05-09 21:53 33.68252 -118.44834 30186 ft 398 kts 316°
2026-05-09 21:54 33.72153 -118.49558 31115 ft 395 kts 316°
2026-05-09 21:54 33.74089 -118.51906 31394 ft 399 kts 315°
2026-05-09 21:54 33.76038 -118.54270 31642 ft 402 kts 315°
2026-05-09 21:54 33.78037 -118.56696 31762 ft 409 kts 315°
2026-05-09 21:55 33.80013 -118.59097 31918 ft 404 kts 315°
2026-05-09 21:55 33.81980 -118.61489 31967 ft 400 kts 315°
2026-05-09 21:55 33.85836 -118.66181 31980 ft 388 kts 315°
2026-05-09 21:56 33.89632 -118.70806 31994 ft 389 kts 315°
2026-05-09 21:56 33.93436 -118.75449 31985 ft 389 kts 315°
2026-05-09 21:57 33.97237 -118.80094 31994 ft 389 kts 315°
2026-05-09 21:57 34.01007 -118.84706 32001 ft 389 kts 315°
2026-05-09 21:58 34.04822 -118.89380 32006 ft 389 kts 315°
2026-05-09 21:58 34.08622 -118.94044 32018 ft 380 kts 315°
2026-05-09 21:59 34.12229 -118.98560 32028 ft 380 kts 311°
2026-05-09 21:59 34.15555 -119.03579 32011 ft 383 kts 305°
2026-05-09 22:00 34.18417 -119.08980 32000 ft 377 kts 303°
2026-05-09 22:00 34.21219 -119.14414 31996 ft 384 kts 303°
2026-05-09 22:01 34.24035 -119.19892 31996 ft 383 kts 303°
2026-05-09 22:01 34.26851 -119.25374 31997 ft 383 kts 303°
2026-05-09 22:02 34.29660 -119.30848 32004 ft 383 kts 303°
2026-05-09 22:02 34.32457 -119.36307 31998 ft 384 kts 303°
2026-05-09 22:03 34.35261 -119.41791 32005 ft 383 kts 303°
2026-05-09 22:03 34.38067 -119.47282 31999 ft 384 kts 303°
2026-05-09 22:04 34.41116 -119.52598 32004 ft 383 kts 309°
2026-05-09 22:04 34.44591 -119.57486 32002 ft 383 kts 314°
2026-05-09 22:05 34.48319 -119.62113 32002 ft 383 kts 315°
2026-05-09 22:05 34.52066 -119.66722 32004 ft 383 kts 315°
2026-05-09 22:06 34.55808 -119.71332 32003 ft 383 kts 315°
2026-05-09 22:06 34.59518 -119.75908 31998 ft 382 kts 315°
2026-05-09 22:07 34.63255 -119.80528 32017 ft 383 kts 315°
2026-05-09 22:07 34.66975 -119.85132 31986 ft 383 kts 314°
2026-05-09 22:08 34.70714 -119.89764 31982 ft 383 kts 314°
2026-05-09 22:08 34.74433 -119.94390 31986 ft 383 kts 313°
2026-05-09 22:09 34.78172 -119.99039 31981 ft 383 kts 315°
2026-05-09 22:09 34.81882 -120.03637 31976 ft 382 kts 314°
2026-05-09 22:10 34.85611 -120.08286 31992 ft 382 kts 314°
2026-05-09 22:10 34.89314 -120.12907 31978 ft 383 kts 314°
2026-05-09 22:11 34.93054 -120.17582 32004 ft 383 kts 314°
2026-05-09 22:11 34.96769 -120.22230 32003 ft 383 kts 314°
2026-05-09 22:12 35.00491 -120.26894 32013 ft 383 kts 314°
2026-05-09 22:12 35.04188 -120.31532 32008 ft 383 kts 314°
2026-05-09 22:13 35.07892 -120.36198 32015 ft 383 kts 314°
2026-05-09 22:13 35.11783 -120.40659 32012 ft 383 kts 317°
2026-05-09 22:14 35.15716 -120.45062 32000 ft 383 kts 317°
2026-05-09 22:14 35.19648 -120.49468 31991 ft 383 kts 317°
2026-05-09 22:15 35.23581 -120.53882 31990 ft 383 kts 317°
2026-05-09 22:15 35.27502 -120.58290 31978 ft 384 kts 317°
2026-05-09 22:16 35.31407 -120.62683 31986 ft 383 kts 317°
2026-05-09 22:16 35.35345 -120.67123 31989 ft 383 kts 317°
2026-05-09 22:17 35.39252 -120.71530 31993 ft 383 kts 317°
2026-05-09 22:17 35.43186 -120.75979 31993 ft 383 kts 317°
2026-05-09 22:18 35.47111 -120.80390 32004 ft 383 kts 317°
2026-05-09 22:18 35.51238 -120.84493 31997 ft 383 kts 322°
2026-05-09 22:19 35.55509 -120.88465 32003 ft 383 kts 322°
2026-05-09 22:19 35.59760 -120.92408 32008 ft 383 kts 322°
2026-05-09 22:20 35.63991 -120.96339 31997 ft 383 kts 322°
2026-05-09 22:20 35.66120 -120.98321 31764 ft 383 kts 322°
2026-05-09 22:20 35.68231 -121.00285 31363 ft 377 kts 322°
2026-05-09 22:21 35.70302 -121.02215 30952 ft 371 kts 322°
2026-05-09 22:21 35.72353 -121.04128 30560 ft 368 kts 322°
2026-05-09 22:21 35.74399 -121.06037 30189 ft 372 kts 322°
2026-05-09 22:21 35.76478 -121.07978 29778 ft 375 kts 322°
2026-05-09 22:22 35.78561 -121.09924 29348 ft 377 kts 322°
2026-05-09 22:22 35.80656 -121.11882 28922 ft 378 kts 322°
2026-05-09 22:22 35.82755 -121.13846 28492 ft 379 kts 322°
2026-05-09 22:22 35.84826 -121.15785 28078 ft 378 kts 322°
2026-05-09 22:23 35.86916 -121.17742 27658 ft 376 kts 322°
2026-05-09 22:23 35.88986 -121.19683 27244 ft 373 kts 322°
2026-05-09 22:23 35.91050 -121.21620 26836 ft 372 kts 322°
2026-05-09 22:23 35.93105 -121.23549 26443 ft 370 kts 322°
2026-05-09 22:24 35.95142 -121.25462 26053 ft 364 kts 322°
2026-05-09 22:24 35.97138 -121.27338 25668 ft 358 kts 322°
2026-05-09 22:24 35.99146 -121.29227 25310 ft 369 kts 322°
2026-05-09 22:24 36.01209 -121.31168 24946 ft 374 kts 322°
2026-05-09 22:25 36.03286 -121.33124 24605 ft 381 kts 322°
2026-05-09 22:25 36.05423 -121.35144 24329 ft 391 kts 322°
2026-05-09 22:25 36.07660 -121.37076 24036 ft 392 kts 326°
2026-05-09 22:25 36.09955 -121.38898 23734 ft 391 kts 327°
2026-05-09 22:26 36.12241 -121.40687 23399 ft 389 kts 327°
2026-05-09 22:26 36.14526 -121.42467 23091 ft 386 kts 327°
2026-05-09 22:26 36.16776 -121.44222 22838 ft 385 kts 327°
2026-05-09 22:26 36.19038 -121.45988 22578 ft 384 kts 327°
2026-05-09 22:27 36.21294 -121.47749 22322 ft 383 kts 327°
2026-05-09 22:27 36.23544 -121.49508 22121 ft 381 kts 327°
2026-05-09 22:27 36.25783 -121.51260 21949 ft 381 kts 327°
2026-05-09 22:27 36.28022 -121.53014 21768 ft 380 kts 327°
2026-05-09 22:28 36.30259 -121.54766 21598 ft 379 kts 327°
2026-05-09 22:28 36.32492 -121.56516 21417 ft 378 kts 327°
2026-05-09 22:28 36.34708 -121.58256 21243 ft 376 kts 327°
2026-05-09 22:28 36.36923 -121.59993 21154 ft 375 kts 327°
2026-05-09 22:29 36.39105 -121.61708 21086 ft 376 kts 327°
2026-05-09 22:29 36.41321 -121.63452 21008 ft 374 kts 326°
2026-05-09 22:29 36.43505 -121.65170 20938 ft 374 kts 326°
2026-05-09 22:29 36.45691 -121.66891 20857 ft 374 kts 326°
2026-05-09 22:30 36.47912 -121.68639 20782 ft 374 kts 326°
2026-05-09 22:30 36.50109 -121.70373 20708 ft 373 kts 326°
2026-05-09 22:30 36.52305 -121.72107 20559 ft 374 kts 326°
2026-05-09 22:30 36.53177 -121.72796 20413 ft 374 kts 326°
2026-05-09 22:31 36.54854 -121.74121 20109 ft 372 kts 326°
2026-05-09 22:31 36.57025 -121.75839 19719 ft 368 kts 326°
2026-05-09 22:32 36.58458 -121.76973 19468 ft 367 kts 326°
2026-05-09 22:32 36.60605 -121.78673 19094 ft 365 kts 326°
2026-05-09 22:32 36.62730 -121.80355 18739 ft 363 kts 326°
2026-05-09 22:32 36.64865 -121.82048 18351 ft 362 kts 326°
2026-05-09 22:33 36.66956 -121.83706 17953 ft 360 kts 326°
2026-05-09 22:33 36.68818 -121.85184 17594 ft 358 kts 326°
2026-05-09 22:34 36.70252 -121.86322 17320 ft 357 kts 326°
2026-05-09 22:34 36.72405 -121.87778 16927 ft 357 kts 334°
2026-05-09 22:34 36.74694 -121.88960 16539 ft 355 kts 338°
2026-05-09 22:35 36.77010 -121.90017 16156 ft 353 kts 339°
2026-05-09 22:35 36.79368 -121.90842 15779 ft 352 kts 345°
2026-05-09 22:35 36.81754 -121.91541 15335 ft 351 kts 346°
2026-05-09 22:35 36.84139 -121.92212 14897 ft 348 kts 346°
2026-05-09 22:36 36.86491 -121.92867 14468 ft 346 kts 346°
2026-05-09 22:36 36.87684 -121.93200 14252 ft 345 kts 346°